Seldovia, AK

5:55 PM AKDT on April 24, 2018 (GMT -0800)
Seldovia

Weather History for PASO - October, 2012

Change the Weather History Date:

Tuesday, October 30, 2012

  Actual Average (PAHO) Record (PAHO)
Temperature  
Mean Temperature 34 °F -  
Max Temperature 37 °F 37 °F 53 °F (2002)
Min Temperature 30 °F 26 °F 2 °F (1975)
Degree Days  
Heating Degree Days 32    
Moisture  
Dew Point 22 °F    
Average Humidity 67    
Maximum Humidity 86    
Minimum Humidity 43    
Precipitation  
Precipitation 0.06 in - - ()
Sea Level Pressure  
Sea Level Pressure 29.72 in    
Wind  
Wind Speed 9 mph (NNE)    
Max Wind Speed 18 mph    
Max Gust Speed 34 mph    
Visibility 7 miles    
Events Fog , Snow    
Averages and records for this station are not official NWS values.
T = Trace of Precipitation, MM = Missing Value Source: NWS Daily Summary

Daily Weather History Graph

Daily Weather History Graph

Search for Another Location

Airport or City:

Astronomy

Oct. 30, 2012 Rise Set
Actual Time 9:23 AM AKDT 6:16 PM AKDT
Civil Twilight 8:39 AM AKDT 7:00 PM AKDT
Nautical Twilight 7:50 AM AKDT 7:48 PM AKDT
Astronomical Twilight 7:03 AM AKDT 8:35 PM AKDT
Moon 6:27 PM AKDT (10/30) 10:42 AM AKDT (10/30)
Length of Visible Light 10h 20m
Length of Day
8h 52m
Full, 99% of the Moon is Illuminated
Oct 30
Full
Nov 6
Last Quarter
Nov 13
New
Nov 20
First Quarter
Nov 28
Full

Hourly Weather History & Observations

Time (AKDT) Temp. Windchill Dew Point Humidity Pressure Visibility Wind Dir Wind Speed Gust Speed Precip Events Conditions
12:20 AM 37.4 °F 32.1 °F 32.0 °F 81% 29.80 in 10.0 mi NNE 6.9 mph - N/A   Mostly Cloudy
12:35 AM 37.4 °F 32.8 °F 30.2 °F 75% 29.80 in 10.0 mi NNE 5.8 mph - N/A   Overcast
12:44 AM 37.4 °F 33.8 °F 30.2 °F 75% 29.80 in 10.0 mi NNE 4.6 mph - N/A   Overcast
12:53 AM 37.0 °F 34.5 °F 30.0 °F 76% 29.79 in 10.0 mi NNE 3.5 mph - N/A   Overcast
1:42 AM 35.6 °F 32.8 °F 30.2 °F 81% 29.78 in 5.0 mi South 3.5 mph - 0.01 in Snow Light Snow
1:53 AM 36.0 °F 30.3 °F 30.0 °F 79% 29.78 in 9.0 mi Variable 6.9 mph 23.0 mph 0.01 in   Overcast
2:05 AM 37.4 °F 33.8 °F 26.6 °F 65% 29.78 in 10.0 mi Variable 4.6 mph - 0.00 in   Overcast
2:53 AM 36.0 °F 30.3 °F 24.1 °F 62% 29.77 in 10.0 mi Variable 6.9 mph - 0.00 in   Overcast
3:53 AM 35.1 °F 32.2 °F 23.0 °F 61% 29.75 in 10.0 mi Variable 3.5 mph 18.4 mph N/A   Overcast
4:53 AM 34.0 °F 28.8 °F 21.0 °F 59% 29.74 in 10.0 mi Variable 5.8 mph - N/A   Overcast
5:40 AM 33.8 °F 24.3 °F 24.8 °F 70% 29.72 in 1.8 mi NNE 13.8 mph 28.8 mph 0.01 in Snow Light Snow
5:46 AM 30.2 °F 24.3 °F 26.6 °F 86% 29.72 in 0.5 mi Variable 5.8 mph 28.8 mph 0.02 in Fog , Snow Snow
5:53 AM 30.9 °F 20.7 °F 27.0 °F 85% 29.72 in 0.5 mi NNE 13.8 mph 21.9 mph 0.04 in Fog , Snow Snow
6:12 AM 30.2 °F 18.9 °F 24.8 °F 80% 29.71 in 1.0 mi NNE 16.1 mph 23.0 mph 0.01 in Snow Light Snow
6:15 AM 30.2 °F 19.8 °F 24.8 °F 80% 29.72 in 2.0 mi NNE 13.8 mph 24.2 mph 0.01 in Snow Light Snow
6:22 AM 30.2 °F 19.3 °F 24.8 °F 80% 29.72 in 7.0 mi NNE 15.0 mph 24.2 mph 0.01 in Snow Light Snow
6:53 AM 30.0 °F 19.1 °F 24.1 °F 79% 29.73 in 3.0 mi North 15.0 mph 27.6 mph 0.01 in Snow Light Snow
7:02 AM 30.2 °F 21.3 °F 24.8 °F 80% 29.72 in 2.0 mi North 10.4 mph 21.9 mph 0.00 in Snow Light Snow
7:10 AM 30.2 °F 19.3 °F 26.6 °F 86% 29.73 in 0.8 mi North 15.0 mph 21.9 mph 0.00 in Snow Light Snow
7:21 AM 30.2 °F 21.3 °F 23.0 °F 75% 29.72 in 2.0 mi North 10.4 mph 23.0 mph 0.00 in Snow Light Snow
7:24 AM 30.2 °F 18.5 °F 23.0 °F 75% 29.72 in 5.0 mi North 17.3 mph 24.2 mph 0.00 in Snow Light Snow
7:53 AM 30.9 °F 20.7 °F 19.9 °F 64% 29.73 in 10.0 mi North 13.8 mph 21.9 mph 0.00 in   Overcast
8:53 AM 30.9 °F 21.7 °F 19.9 °F 64% 29.74 in 10.0 mi North 11.5 mph 24.2 mph N/A   Overcast
10:53 AM 30.9 °F 23.5 °F 19.9 °F 64% 29.75 in 10.0 mi NNE 8.1 mph - N/A   Overcast
11:30 AM 30.2 °F 21.3 °F 21.2 °F 69% 29.75 in 1.5 mi North 10.4 mph 17.3 mph 0.00 in Snow Light Snow
11:40 AM 30.2 °F 21.9 °F 21.2 °F 69% 29.74 in 1.5 mi North 9.2 mph 17.3 mph 0.00 in Snow Light Snow
11:43 AM 30.2 °F 24.3 °F 19.4 °F 64% 29.74 in 3.0 mi North 5.8 mph - 0.00 in Snow Light Snow
11:53 AM 30.9 °F 23.5 °F 19.9 °F 64% 29.75 in 9.0 mi North 8.1 mph - 0.00 in   Overcast
12:07 PM 30.2 °F 24.3 °F 19.4 °F 64% 29.74 in 10.0 mi North 5.8 mph - N/A   Overcast
12:53 PM 30.0 °F 23.2 °F 21.9 °F 72% 29.74 in 5.0 mi NNE 6.9 mph - 0.00 in Snow Light Snow
1:06 PM 30.2 °F 21.3 °F 19.4 °F 64% 29.73 in 10.0 mi North 10.4 mph - 0.00 in   Overcast
1:14 PM 30.2 °F 20.2 °F 19.4 °F 64% 29.72 in 10.0 mi North 12.7 mph 18.4 mph 0.00 in   Overcast
1:53 PM 32.0 °F 23.6 °F 19.0 °F 59% 29.72 in 10.0 mi North 10.4 mph 18.4 mph 0.00 in   Overcast
2:44 PM 30.2 °F 21.3 °F 24.8 °F 80% 29.70 in 1.8 mi North 10.4 mph 26.5 mph 0.00 in Snow Light Snow
2:49 PM 32.0 °F 23.6 °F 23.0 °F 69% 29.70 in 3.0 mi North 10.4 mph 19.6 mph 0.00 in Snow Light Snow
2:53 PM 32.0 °F 24.2 °F 21.9 °F 66% 29.70 in 8.0 mi North 9.2 mph - 0.00 in Snow Light Snow
3:53 PM 34.0 °F 26.0 °F 15.1 °F 46% 29.68 in 10.0 mi North 10.4 mph 19.6 mph N/A   Overcast
4:53 PM 33.1 °F 25.5 °F 16.0 °F 50% 29.66 in 10.0 mi NNE 9.2 mph 18.4 mph N/A   Overcast
5:53 PM 33.1 °F 23.9 °F 16.0 °F 50% 29.66 in 9.0 mi NNE 12.7 mph 20.7 mph N/A   Overcast
6:53 PM 33.1 °F 24.4 °F 12.9 °F 43% 29.64 in 10.0 mi North 11.5 mph 18.4 mph 0.00 in   Overcast
7:53 PM 33.1 °F 22.2 °F 14.0 °F 46% 29.63 in 10.0 mi North 17.3 mph 24.2 mph N/A   Overcast
8:53 PM 32.0 °F 21.2 °F 16.0 °F 52% 29.64 in 9.0 mi NNE 16.1 mph 20.7 mph 0.00 in   Overcast
9:53 PM 32.0 °F 20.5 °F 14.0 °F 48% 29.62 in 10.0 mi North 18.4 mph 26.5 mph 0.00 in   Overcast
10:53 PM 30.9 °F 19.1 °F 12.9 °F 47% 29.62 in 10.0 mi North 18.4 mph 34.5 mph N/A   Mostly Cloudy
11:53 PM 30.9 °F 19.1 °F 12.0 °F 46% 29.61 in 10.0 mi North 18.4 mph 31.1 mph N/A   Mostly Cloudy